Wind_Speed
21 23 23 23 24 24 25 25 25 27 28 30 30 25 16 10 8 7 6 6 4 2 3 2 3 4 6 7 9 12 9 5 6 7 5 6 5 4 4 4 4 3 2 3 2 1 1 1 3 3 3 5 8 10 14 14 7 3 2 3 4 3 1 1 1 1 1 1 2 6 9 8 5 4 5 5 5 5 5 5 4 4 3 2 4 2 6
21 21 22 23 24 25 25 25 25 24 24 25 27 23 15 13 11 6 6 6 5 2 2 3 3 4 8 9 10 12 9 6 8 6 3 4 2 2 3 3 4 4 3 2 2 1 0 2 3 3 2 3 10 15 15 13 8 6 5 4 7 6 2 1 2 3 4 3 3 4 6 7 5 3 4 6 7 6 4 2 2 3 4 4 5 4 7
21 21 22 22 24 25 25 24 25 24 21 20 21 18 16 13 7 4 8 7 6 4 3 3 4 5 8 9 9 9 6 6 9 8 6 5 4 3 3 2 2 2 2 2 3 4 3 2 2 3 2 2 7 13 17 16 11 12 12 6 6 6 3 3 4 5 7 6 4 5 6 5 4 4 6 7 9 9 5 2 3 2 4 4 6 4 6
21 21 21 21 23 24 23 23 25 25 21 19 17 13 11 8 3 4 8 6 6 8 7 5 4 4 6 7 6 5 3 4 6 7 6 6 6 5 4 3 2 1 1 0 2 4 5 6 3 2 3 3 4 10 20 20 15 18 22 14 3 2 2 3 5 6 7 6 5 3 5 6 4 6 7 5 7 9 6 4 4 4 3 2 5 5 4
21 21 21 21 22 24 24 24 25 25 22 19 16 11 8 5 2 3 7 5 5 6 6 4 3 4 5 3 3 4 4 4 4 3 3 3 3 3 3 3 1 2 2 1 2 3 5 7 5 4 4 4 5 8 17 19 19 22 21 15 4 2 4 4 5 8 8 6 6 5 8 8 6 8 8 4 5 8 7 5 5 5 5 3 7 5 4
21 21 20 21 23 23 23 23 25 26 23 19 17 13 9 6 3 5 7 5 3 3 6 7 6 8 7 2 2 5 5 4 2 2 3 4 2 1 1 2 3 3 2 1 2 4 2 3 1 3 3 4 6 3 10 12 17 18 11 7 4 0 5 5 4 6 7 5 7 8 9 8 8 9 8 5 7 9 8 7 7 7 6 6 6 6 6
20 20 19 20 22 22 21 22 24 25 23 19 18 15 10 7 5 8 10 8 8 12 15 14 10 7 5 2 2 4 5 5 3 2 2 4 2 2 1 3 4 6 5 3 2 3 1 2 1 2 3 5 4 1 5 5 9 10 5 4 4 2 5 4 2 3 2 3 7 9 9 9 8 8 8 8 9 9 7 6 6 6 6 5 5 6 6
20 20 19 19 20 21 22 22 23 25 23 19 20 18 13 11 8 11 15 13 13 16 15 11 7 4 3 2 3 3 4 7 5 3 4 3 1 3 2 5 5 5 6 6 4 3 3 3 5 4 2 4 3 2 2 2 5 6 3 3 3 3 5 3 2 3 3 4 4 8 9 10 8 6 5 7 9 6 3 2 3 4 3 2 6 4 5
20 20 20 19 19 19 21 21 21 24 24 21 19 18 15 13 13 14 13 9 9 10 9 6 5 3 1 2 4 3 4 8 10 4 6 7 4 4 4 5 4 3 3 4 4 4 6 8 10 8 5 4 3 1 1 3 4 3 1 0 1 2 2 2 3 4 2 4 5 7 8 9 8 5 5 8 8 5 3 3 4 5 5 6 7 3 5
19 19 19 19 19 19 20 21 20 21 23 21 18 17 17 17 19 17 10 6 6 7 7 6 5 4 2 4 6 7 8 10 10 4 5 9 9 9 8 4 3 2 1 2 5 7 7 12 16 15 13 11 8 7 5 2 3 4 2 1 0 1 1 2 2 4 2 4 4 8 8 8 4 4 7 7 5 4 3 2 3 5 7 7 6 6 5
19 19 18 18 19 19 19 20 20 19 20 20 16 16 17 18 20 18 9 4 4 5 6 5 4 3 6 9 10 10 11 11 9 5 1 5 8 10 10 5 2 3 3 5 11 15 17 20 21 18 13 11 11 11 7 5 5 5 5 2 2 1 2 1 1 4 0 4 4 8 6 4 5 6 6 6 6 7 6 2 4 5 4 4 5 4 2
19 18 18 18 18 18 17 18 19 18 18 17 14 12 12 14 17 14 6 4 6 6 5 5 6 7 11 14 13 10 10 12 11 8 4 5 7 9 8 4 3 3 7 13 20 20 17 15 12 7 5 7 9 6 2 1 5 4 6 4 3 1 2 1 2 4 2 2 6 6 4 6 6 5 4 4 5 9 7 2 2 2 1 2 3 5 6
21 19 17 17 18 18 17 16 17 17 16 15 13 10 9 11 14 13 8 5 4 5 7 10 14 14 13 14 13 12 14 15 16 11 4 5 6 7 5 3 4 8 15 20 20 14 7 4 3 2 2 4 2 1 3 2 3 4 4 4 4 2 3 2 2 3 2 3 5 4 6 6 4 3 1 1 3 6 7 2 4 3 2 2 1 4 6
22 21 18 17 17 17 17 15 15 17 16 14 12 9 8 9 12 13 10 4 4 10 12 10 11 13 14 15 13 12 14 16 16 13 6 4 5 6 7 8 8 12 16 17 12 6 2 2 3 3 4 6 5 2 3 3 1 5 8 8 6 4 3 3 2 2 3 4 3 1 2 3 3 2 0 1 1 4 6 3 4 4 1 3 2 2 5
22 22 20 17 17 17 17 15 15 17 17 15 11 6 5 8 11 11 10 6 6 10 8 4 7 14 15 15 14 9 9 10 10 11 9 6 5 6 10 14 12 12 12 8 3 3 1 2 4 4 5 5 5 3 4 3 1 4 7 7 4 3 3 4 3 1 2 4 3 2 2 0 3 5 4 3 4 4 5 5 2 5 3 3 5 6 7
22 23 21 19 17 16 16 16 15 16 17 15 10 5 4 7 8 10 12 9 4 6 10 11 14 15 13 14 13 8 5 5 6 7 6 6 9 12 16 15 10 11 12 5 2 3 2 2 3 4 4 4 4 3 4 4 2 3 5 3 4 6 3 4 5 3 2 4 4 2 2 2 4 7 6 6 5 3 5 5 2 6 3 2 6 8 8
21 22 22 21 18 16 16 16 14 15 16 15 11 6 4 7 9 11 12 8 6 12 16 13 12 13 10 8 9 7 5 7 6 4 4 6 8 13 19 17 10 11 14 6 2 3 4 3 3 4 3 1 2 3 3 3 3 2 2 2 7 7 5 4 5 3 2 4 3 1 2 1 3 6 8 10 6 2 6 3 6 7 2 1 8 12 10
21 22 23 21 19 17 16 15 14 14 15 15 11 5 3 7 9 11 12 10 7 11 13 10 13 16 10 6 9 10 9 8 5 3 5 5 4 10 17 15 8 10 12 6 2 3 4 3 3 4 2 3 1 2 2 2 3 1 1 3 5 4 3 3 4 3 3 4 3 0 2 3 4 7 12 12 6 6 5 5 7 5 3 3 9 17 15
21 21 23 22 20 18 16 15 14 13 13 15 12 5 2 6 9 12 15 11 4 12 22 20 17 18 14 11 14 14 12 11 7 4 4 3 8 16 15 7 3 7 7 4 3 2 3 2 2 2 2 3 2 1 0 1 1 1 2 4 3 2 2 2 2 3 2 3 4 2 2 3 4 10 14 8 4 3 3 5 5 7 7 5 8 20 21
21 21 22 23 21 18 18 17 14 12 13 15 14 9 3 4 9 13 15 12 10 21 28 21 15 21 23 19 18 17 16 13 8 3 0 4 14 20 9 0 4 7 5 4 3 2 2 2 2 1 2 2 1 2 1 2 1 1 2 3 2 2 2 2 0 1 2 3 4 2 2 3 8 11 8 4 3 4 5 4 6 8 9 6 9 21 26
21 21 22 23 21 19 20 18 14 13 13 12 15 14 7 5 9 12 14 14 13 17 22 24 26 29 26 21 20 18 17 16 12 9 8 12 16 12 3 1 6 4 1 2 2 1 1 1 1 1 1 2 1 2 1 2 3 3 1 3 2 1 2 1 1 2 2 3 1 2 4 4 9 6 1 1 0 1 1 2 3 5 7 4 8 19 25
21 21 21 23 22 20 20 19 15 14 14 12 13 15 12 9 10 12 16 18 16 20 25 29 26 20 14 12 12 11 13 15 14 12 14 15 14 8 2 4 5 3 2 3 2 1 2 1 1 2 1 1 2 1 2 3 1 4 4 3 2 2 2 3 3 1 2 3 3 3 3 4 5 3 3 4 7 7 6 6 7 6 5 1 7 14 21
21 21 20 21 22 21 21 19 15 14 14 13 12 14 15 13 12 15 18 19 20 26 27 21 14 12 11 10 10 12 13 11 9 9 11 11 9 8 5 5 6 5 5 5 4 1 1 1 2 2 1 0 1 2 3 3 2 2 3 2 1 2 2 2 4 1 0 2 1 2 2 3 3 6 9 12 14 13 11 12 12 11 6 0 6 11 18
22 21 20 21 21 21 21 18 15 14 14 13 13 14 16 14 14 18 19 16 17 21 19 15 14 14 16 16 13 10 8 7 10 11 8 9 9 5 4 7 11 9 6 7 7 4 1 0 1 2 1 0 1 3 3 3 1 1 2 2 3 2 1 2 4 3 2 2 1 3 3 4 5 8 12 15 16 14 13 13 13 13 10 5 3 8 14
22 20 20 21 20 21 20 17 15 14 14 13 13 14 15 13 14 17 16 14 14 11 7 12 16 14 19 21 12 2 4 10 13 11 10 11 11 8 5 7 12 12 10 10 9 6 1 1 1 3 2 1 1 2 1 1 1 2 3 1 2 2 2 2 4 3 1 2 4 3 3 4 6 8 11 13 15 14 13 13 11 11 11 9 6 4 10
21 20 21 21 20 20 19 17 16 14 13 14 14 13 14 14 13 12 10 10 12 8 4 8 14 17 21 16 4 1 8 11 8 7 10 11 11 10 10 10 11 14 13 10 7 3 2 2 2 2 1 1 1 1 1 1 1 2 2 1 3 2 2 1 4 3 2 1 3 1 3 6 7 10 12 13 13 13 12 12 10 10 11 11 10 7 4
21 20 21 21 20 19 18 17 16 14 13 14 13 12 13 12 8 6 4 6 7 5 2 7 19 26 23 11 3 8 12 9 7 6 7 8 10 11 11 11 13 14 12 8 5 4 4 3 2 1 1 2 1 1 1 1 2 3 1 3 4 2 1 2 4 4 1 3 5 4 4 3 4 8 13 14 12 11 12 13 12 12 12 10 9 9 6
20 21 20 20 20 19 18 16 15 14 14 13 12 11 10 7 3 2 2 4 6 5 5 15 27 28 19 9 7 11 11 8 8 8 9 10 8 10 11 10 10 9 8 5 4 3 2 2 1 1 1 1 1 2 2 2 3 3 2 5 5 2 1 1 4 5 3 5 8 7 6 5 4 9 14 14 12 13 15 16 15 13 12 9 8 8 6
21 21 20 20 19 17 16 14 13 13 14 13 11 7 3 3 4 3 3 5 5 6 12 19 21 18 14 13 12 11 9 7 7 7 9 11 8 10 12 11 11 10 8 3 1 1 1 1 2 2 2 1 1 2 3 2 2 1 3 5 6 5 2 2 4 4 3 7 10 9 9 11 11 13 15 14 13 13 15 16 15 13 12 10 7 6 6
21 20 19 19 18 16 14 12 11 13 13 13 12 7 2 3 4 4 5 5 4 6 11 10 8 13 20 19 14 13 12 10 8 8 9 9 9 10 11 12 15 17 13 6 2 2 2 2 2 1 1 1 2 1 1 1 0 2 4 4 6 8 6 1 3 3 7 13 14 14 17 18 16 15 15 14 12 11 13 15 14 11 10 9 8 7 6
20 20 19 19 17 15 13 11 10 12 13 13 11 6 1 1 2 5 7 6 5 9 11 8 10 17 20 15 12 15 17 14 10 7 7 7 7 6 6 9 13 15 13 9 5 3 3 2 2 2 2 2 3 2 2 2 1 2 3 3 4 9 11 9 8 11 16 20 20 18 17 15 11 11 13 14 11 10 11 14 13 11 8 7 7 7 4
20 19 19 18 16 15 13 11 11 13 13 13 12 9 6 4 6 8 10 9 10 12 11 7 7 8 8 11 14 16 16 14 11 9 7 6 4 2 4 6 8 9 7 5 4 3 1 1 4 4 4 4 3 2 2 3 2 2 3 2 2 8 13 13 14 17 19 19 17 14 11 10 10 10 12 13 11 9 10 11 11 9 8 7 7 6 4
20 20 20 18 16 15 14 13 13 14 14 14 12 10 7 4 4 7 10 11 12 11 7 3 3 2 5 13 16 14 15 15 12 11 8 4 2 0 2 4 5 4 3 2 2 1 1 2 4 5 4 4 3 2 2 2 1 2 1 2 4 7 8 7 8 11 12 10 9 9 9 11 14 13 12 10 10 10 9 9 7 6 6 7 7 7 5
19 20 20 18 16 14 14 13 12 12 13 12 9 5 3 1 2 3 6 7 8 6 4 3 2 2 6 11 9 9 16 16 10 9 7 2 1 2 1 1 0 1 1 2 2 1 1 1 3 4 2 2 4 3 1 3 2 2 6 8 11 14 13 8 5 5 6 6 7 10 13 15 14 12 10 9 10 9 7 7 6 5 5 7 8 8 6
19 19 19 17 14 12 11 10 10 10 10 8 7 5 4 4 4 3 4 6 5 3 3 3 3 3 5 6 4 7 15 14 9 7 6 2 2 3 1 1 2 1 2 3 2 1 2 2 3 2 2 3 3 1 3 3 2 6 10 12 14 15 14 12 10 8 8 9 11 13 13 13 11 10 10 10 9 7 6 6 7 6 6 7 8 7 6
19 19 18 15 11 9 9 8 7 7 7 5 6 6 6 6 7 7 8 9 8 6 4 2 1 2 1 2 4 8 13 12 10 8 5 2 3 3 1 1 1 1 2 3 2 2 3 2 3 1 3 2 1 2 4 7 9 10 11 11 10 8 8 11 13 14 13 12 12 12 11 10 10 10 10 9 9 7 6 6 6 6 6 6 6 5 6
19 18 16 12 8 7 6 6 5 5 4 4 5 6 7 8 8 8 9 9 10 10 8 3 2 4 5 3 5 7 8 8 8 8 5 3 3 2 2 2 0 1 3 3 2 3 3 3 3 2 1 1 3 3 4 10 11 10 9 9 7 7 10 13 15 17 16 13 12 12 11 10 10 9 8 8 7 6 5 5 6 5 4 4 3 3 3
18 17 14 10 6 4 4 4 4 4 3 4 5 6 7 5 4 4 5 5 6 8 9 6 5 7 6 4 5 8 7 6 6 5 4 4 3 2 2 2 1 0 2 1 1 3 4 3 3 3 1 4 5 2 6 8 8 8 8 8 8 9 11 11 11 14 15 14 13 12 10 9 9 7 6 6 7 6 6 6 6 5 4 3 2 2 2
17 15 11 7 5 5 4 4 5 4 5 5 5 4 4 3 1 2 3 4 3 5 7 7 7 9 9 6 8 11 9 4 3 3 3 3 3 1 1 1 1 2 2 1 2 2 3 2 3 2 1 5 4 3 5 5 7 10 10 9 9 9 10 9 7 7 9 11 11 9 7 6 7 7 7 7 7 7 7 6 6 4 3 2 1 0 0
14 12 8 6 6 7 7 7 7 5 4 3 3 2 2 3 3 3 3 2 2 4 7 6 7 10 12 11 8 7 5 4 4 3 2 1 1 0 1 0 0 2 2 2 3 1 3 1 2 2 1 4 2 3 5 7 11 13 12 10 9 9 9 9 8 7 9 10 10 8 7 7 7 7 7 7 7 7 7 7 6 4 2 1 1 0 0
13 10 7 6 7 8 9 9 8 6 3 2 2 1 1 2 4 4 3 1 2 4 6 5 4 5 9 12 11 8 7 7 7 5 2 2 2 1 1 1 1 2 1 3 2 2 3 2 1 1 3 5 5 7 10 12 14 13 11 9 9 8 8 9 9 9 9 10 10 9 9 8 8 8 7 6 6 7 8 9 8 5 3 2 2 2 1
13 11 9 9 8 6 4 6 6 4 2 1 1 1 1 2 3 3 3 2 2 2 3 4 4 5 7 8 10 9 7 6 4 2 1 2 2 0 1 1 2 2 1 3 0 3 4 2 1 4 5 7 10 13 15 16 15 12 10 9 8 7 7 9 11 9 7 8 10 10 9 9 8 7 7 6 6 7 8 9 9 8 6 5 3 3 3
12 10 9 9 7 4 1 2 5 3 1 1 1 1 2 1 2 1 2 3 3 3 5 7 9 10 8 7 7 7 6 5 4 2 1 1 1 1 2 2 1 1 1 0 3 4 2 2 3 4 5 10 14 16 17 16 14 12 11 10 9 9 9 10 11 11 9 8 8 9 8 8 7 8 8 7 7 7 8 8 9 9 9 6 4 3 3
9 6 5 6 5 1 1 1 4 3 0 0 1 1 1 2 2 1 1 3 4 4 7 10 11 7 4 4 5 5 4 4 3 2 1 1 1 2 2 0 2 2 0 2 3 1 1 3 4 4 3 10 16 17 16 17 15 13 12 13 12 12 11 11 11 11 10 8 8 7 7 7 6 7 7 7 6 7 7 7 8 10 10 8 6 5 5
6 3 3 4 2 1 1 1 2 2 1 1 2 2 2 2 2 2 2 3 5 6 11 15 13 7 5 6 5 3 2 1 1 1 1 1 1 1 1 2 1 1 2 2 1 0 1 3 5 4 3 10 16 17 17 16 13 11 12 15 15 13 11 10 9 9 8 8 7 6 6 6 5 6 6 5 5 6 7 9 10 11 11 12 11 9 9
4 3 2 2 1 1 1 1 0 0 1 1 1 2 3 5 5 4 3 4 6 8 13 18 15 9 6 5 3 2 3 2 1 1 0 2 1 1 2 1 1 3 3 2 1 1 3 4 5 4 4 8 15 18 17 15 13 11 12 15 15 13 10 9 8 8 7 7 7 6 6 5 4 4 5 5 5 5 7 9 10 10 11 12 13 12 12
3 2 2 1 1 2 1 1 2 3 3 3 7 10 9 9 10 7 5 7 9 11 13 15 13 7 4 4 3 4 3 1 0 1 0 2 1 1 1 2 1 1 2 1 3 4 5 5 5 5 4 6 15 20 19 16 14 12 12 14 14 12 9 8 8 9 9 9 8 8 7 5 4 4 4 5 5 6 6 8 9 9 9 10 11 12 13
2 1 0 0 1 1 1 3 7 7 6 8 13 15 12 8 7 6 5 8 11 12 12 12 9 4 3 3 3 3 2 1 1 2 1 2 1 1 2 2 2 2 2 4 5 5 4 5 7 6 4 7 16 22 20 15 13 13 14 15 14 11 9 9 9 10 10 10 9 9 7 6 5 4 3 4 5 6 7 8 8 8 8 8 10 11 12
2 1 1 1 1 2 4 7 9 8 9 14 18 18 14 11 8 6 6 8 11 11 10 9 6 2 3 3 2 2 2 1 0 1 1 2 0 1 1 1 1 2 2 3 4 4 5 8 9 7 6 11 20 22 17 13 12 13 14 14 12 10 9 10 9 9 10 11 10 8 7 5 4 2 2 3 5 6 6 6 6 6 7 8 9 10 11
2 2 2 2 2 3 6 7 5 5 9 17 20 18 15 13 10 7 7 9 10 9 6 4 3 1 2 2 2 1 2 1 0 0 1 0 1 1 1 1 3 4 4 4 5 7 10 11 10 8 10 15 20 19 14 12 13 14 15 13 12 10 10 9 8 9 11 12 10 8 7 6 4 3 3 4 5 6 6 5 3 4 6 8 8 9 10
2 2 2 2 2 4 6 6 5 4 6 12 17 17 14 12 10 7 6 8 8 5 2 2 3 2 2 1 1 1 3 2 1 1 1 1 1 1 1 3 5 4 4 8 10 12 13 12 10 10 13 18 19 16 12 12 14 15 14 12 11 10 9 7 7 9 12 12 10 8 7 5 3 3 4 5 5 5 5 4 2 2 4 6 7 8 9
2 2 3 5 6 7 7 8 8 8 10 14 16 15 12 11 9 6 4 5 6 4 2 2 2 1 1 1 1 2 3 3 2 2 1 1 1 0 3 6 8 7 6 12 14 13 13 11 10 11 15 18 17 14 13 14 16 14 12 11 12 11 10 8 9 11 12 12 10 9 8 5 3 4 6 6 6 6 5 4 3 2 3 3 4 6 7
Wind_Direction
355 353 352 352 354 356 354 355 360 356 348 346 347 348 351 339 318 322 337 339 325 260 222 239 223 231 266 273 273 281 281 271 285 283 241 223 226 226 237 240 228 217 205 224 262 35 126 209 195 196 217 213 220 216 192 184 186 185 198 204 183 175 199 254 242 154 148 348 105 140 147 142 144 176 174 159 169 167 152 168 188 175 182 152 114 196 266
353 354 354 354 356 357 354 357 3 1 354 347 341 341 340 321 308 319 334 320 303 286 261 265 263 266 280 287 288 287 279 258 270 280 237 212 217 225 228 228 224 214 200 212 264 321 253 261 244 215 213 222 224 222 202 184 184 196 201 178 170 187 208 145 148 128 121 90 77 130 168 172 176 185 162 164 173 161 143 131 127 173 208 163 139 208 253
352 354 356 357 357 356 353 357 3 4 359 349 341 338 334 322 303 313 325 302 257 246 254 266 282 291 292 293 292 291 278 242 244 257 261 244 232 245 261 262 249 230 196 192 234 235 221 256 265 221 228 252 239 225 203 191 195 207 217 203 149 175 205 138 147 161 162 169 174 179 181 171 160 144 149 169 168 159 165 149 119 203 227 157 149 208 254
352 355 356 357 356 354 353 357 4 7 3 355 351 346 338 335 319 317 325 299 241 250 264 261 263 289 303 299 291 286 278 268 264 266 268 249 230 239 265 277 270 211 169 219 249 237 221 222 237 267 255 255 257 217 194 192 200 208 220 228 166 95 259 181 167 179 178 187 208 189 134 130 141 137 139 161 162 151 140 122 147 188 175 175 214 203 228
352 355 356 355 356 356 356 358 5 10 8 3 5 6 357 351 331 329 337 314 260 257 261 241 228 273 294 311 303 286 275 295 302 268 251 268 259 241 239 255 240 166 168 183 233 242 222 208 223 292 266 251 277 218 183 185 200 205 218 232 218 26 290 236 184 188 193 191 190 162 128 136 150 138 137 152 145 132 125 150 192 166 125 265 256 189 184
351 354 356 356 356 356 358 359 3 10 14 13 17 22 20 8 321 315 337 324 283 301 293 286 293 290 281 269 283 289 288 298 315 290 301 315 300 229 236 254 245 238 230 170 213 240 217 166 212 311 274 277 307 231 165 179 200 202 214 232 192 210 273 247 179 190 204 184 165 150 133 141 148 143 149 153 144 144 156 192 204 160 154 235 229 167 197
349 352 356 358 357 356 359 360 2 12 20 21 26 30 20 3 325 312 332 321 286 292 293 291 300 300 280 263 265 279 295 300 272 211 288 311 256 178 266 255 228 238 232 201 239 264 133 101 262 268 269 289 318 130 151 166 177 177 194 215 169 176 262 254 170 164 165 131 154 147 132 137 148 153 159 156 158 166 172 193 201 170 172 204 168 162 227
349 351 355 359 359 357 359 1 3 11 18 24 34 33 12 357 344 319 322 313 288 288 294 297 304 295 272 278 272 258 280 304 307 216 204 276 261 147 215 261 242 244 226 196 211 224 160 184 226 212 252 310 331 84 123 115 123 139 181 206 169 190 242 258 101 98 40 41 117 130 130 140 144 138 131 132 141 148 143 163 179 159 140 109 122 151 263
348 349 352 356 359 359 358 1 4 9 14 19 24 22 6 355 348 330 317 307 297 303 309 310 308 308 324 321 315 308 276 296 315 300 200 210 211 183 233 276 278 277 244 185 210 218 190 211 233 228 226 259 281 324 45 72 114 146 179 171 155 204 249 320 65 91 19 7 81 102 106 115 122 129 132 131 131 137 170 207 190 166 143 103 108 149 254
346 347 351 352 355 357 357 0 4 9 13 13 10 4 358 351 347 342 324 290 293 313 319 319 317 326 330 312 311 308 293 296 314 319 207 218 233 237 246 275 313 298 262 231 273 284 271 264 268 263 247 238 246 254 261 266 188 174 152 102 186 175 208 297 66 103 356 340 90 105 91 95 129 208 181 153 134 130 155 237 232 174 145 127 150 206 229
344 345 349 350 352 355 356 359 3 8 12 11 2 354 355 349 342 339 325 278 287 315 321 322 332 335 317 314 315 310 312 323 331 336 268 249 266 266 259 259 276 261 253 285 306 312 304 292 285 274 251 233 234 233 237 267 254 197 145 130 253 227 148 225 125 121 318 329 75 94 96 141 220 240 198 166 155 150 151 199 229 201 159 141 168 195 184
345 344 347 349 350 352 354 357 359 4 10 9 1 357 358 351 344 341 325 288 308 320 320 304 302 309 308 311 317 317 320 328 325 311 271 262 295 301 284 244 208 259 305 318 321 322 315 302 293 276 222 202 222 224 174 309 271 204 143 145 220 242 114 126 65 106 145 12 68 93 157 215 243 268 245 210 164 148 144 138 253 221 132 107 134 155 171
345 343 344 347 347 348 352 355 356 359 4 5 6 6 355 348 352 350 330 300 294 313 319 303 297 303 309 315 322 320 322 333 336 329 281 248 293 314 307 256 242 299 321 322 323 329 330 316 325 357 91 128 145 45 93 137 218 212 199 206 208 178 131 127 57 80 130 75 76 141 214 253 297 323 268 202 97 113 118 72 331 326 115 129 227 200 174
343 342 342 344 345 345 347 351 352 353 360 6 8 7 359 352 354 348 336 315 280 302 305 299 307 319 324 326 326 323 330 343 350 346 326 282 282 292 313 321 312 317 322 320 326 358 34 346 19 54 83 111 123 106 122 138 205 232 240 244 222 183 135 109 56 61 131 110 91 186 270 329 349 0 45 154 162 153 144 154 281 290 179 157 197 193 140
343 342 342 341 341 343 345 348 349 349 355 6 10 9 357 343 343 343 335 314 296 303 295 274 324 330 325 323 324 327 338 348 348 336 323 317 317 321 335 338 334 334 331 321 348 51 48 17 69 100 111 129 154 146 123 134 268 248 240 243 214 145 127 134 124 69 96 99 83 45 44 165 247 269 277 286 276 230 148 124 238 276 267 182 166 166 152
343 342 341 340 338 339 342 344 347 345 348 360 13 18 351 333 333 338 332 320 293 290 294 298 312 315 311 311 314 318 328 334 335 329 327 342 342 340 347 350 349 353 352 348 94 59 37 81 92 106 115 131 155 144 130 159 195 215 224 227 73 62 55 102 101 62 64 100 102 119 150 187 250 261 276 319 316 245 132 105 257 266 273 164 157 167 167
342 341 341 339 336 336 338 338 343 344 343 352 8 16 1 342 338 341 339 327 283 281 294 309 323 321 314 310 316 325 323 320 328 329 317 326 323 327 341 352 2 3 2 9 103 41 44 80 66 67 80 105 159 150 151 160 164 194 235 25 44 38 19 49 74 65 78 98 95 171 185 225 272 267 298 329 341 93 115 147 251 257 269 182 169 173 178
341 340 341 341 337 334 334 332 336 340 339 346 358 13 0 342 344 347 340 330 297 281 295 317 319 309 304 295 301 310 314 311 314 311 296 286 291 318 328 335 353 2 2 18 75 36 47 59 44 79 84 319 316 149 170 148 148 182 99 63 44 31 29 56 94 95 74 94 98 67 254 266 283 296 314 330 4 73 111 196 239 261 296 279 186 177 178
340 340 340 340 337 335 332 329 331 335 336 339 345 355 352 332 339 343 340 338 292 282 304 316 309 302 307 302 290 293 306 307 295 305 320 299 323 330 323 308 343 355 355 30 67 44 51 40 347 99 99 327 332 122 17 41 136 190 115 103 75 46 42 39 82 79 57 109 109 37 286 265 312 317 321 341 66 119 205 237 285 302 299 288 190 178 177
337 338 338 338 337 336 335 330 327 329 333 335 335 336 335 317 328 337 340 335 297 291 308 325 322 310 311 303 289 292 304 303 290 292 339 288 317 334 347 341 341 348 357 35 42 23 50 37 314 34 90 307 307 107 27 336 350 10 118 121 109 122 107 37 45 140 78 76 70 57 205 266 333 336 339 27 110 199 242 297 328 314 307 302 192 180 180
333 335 336 337 336 335 334 329 324 324 328 329 328 327 322 311 326 331 329 322 297 285 307 324 318 310 306 297 291 287 280 282 290 292 287 296 314 336 42 238 312 338 26 20 19 358 26 54 297 7 75 297 338 84 80 7 2 359 63 111 92 99 132 136 204 182 104 89 89 192 204 273 330 348 61 115 339 248 298 10 0 333 328 318 188 183 183
328 330 332 333 332 332 332 328 322 319 320 321 323 320 313 316 331 329 321 315 292 281 302 315 312 308 310 308 313 310 290 292 303 291 277 290 314 332 301 284 318 353 356 1 41 12 345 11 75 48 28 333 2 49 96 102 69 327 351 69 67 322 222 161 145 154 136 149 197 233 244 283 328 16 75 58 55 65 71 71 67 45 8 310 186 185 187
323 326 328 329 329 330 330 327 321 315 314 318 320 313 312 321 334 329 324 321 310 307 316 322 316 322 339 345 346 338 321 314 322 306 274 268 292 322 329 340 1 4 6 29 43 306 301 98 117 96 75 324 45 41 39 73 94 326 354 47 28 307 275 122 110 132 51 71 47 338 324 333 21 52 60 63 67 68 69 71 69 60 50 118 196 192 191
320 322 325 326 326 327 329 326 320 314 312 315 314 309 312 322 331 328 327 328 327 327 329 322 316 330 344 341 336 331 323 320 327 325 295 247 252 294 355 16 13 2 357 13 360 323 288 140 112 96 92 299 81 80 56 49 70 100 51 359 324 318 353 72 91 103 99 77 327 312 332 348 24 59 68 70 72 70 68 67 63 60 63 76 167 189 190
319 320 321 323 323 324 327 325 319 313 311 310 308 307 310 319 327 326 325 325 325 328 325 309 313 332 338 330 324 312 319 326 323 308 278 253 250 256 288 340 359 353 342 347 346 336 358 30 47 92 92 326 35 92 108 89 93 106 90 39 287 321 23 77 101 86 98 194 239 279 0 22 39 65 73 72 74 76 73 71 69 67 67 65 72 151 185
319 318 317 320 322 322 324 324 319 315 310 307 307 308 312 321 324 316 316 324 316 300 267 287 307 332 339 331 325 18 329 332 329 289 269 263 255 255 271 294 318 332 337 345 347 353 81 79 54 93 109 356 52 96 168 125 82 82 98 213 263 314 352 113 125 90 57 179 235 266 53 47 45 63 72 72 75 80 79 77 76 75 72 69 69 82 147
319 317 315 318 320 320 321 322 319 315 311 305 306 311 315 319 319 305 321 353 328 299 234 279 303 324 337 334 331 353 348 353 0 332 303 284 260 249 257 273 293 315 334 349 355 17 68 59 26 111 195 300 14 56 69 74 68 77 66 323 336 40 86 111 113 113 142 216 206 175 125 84 38 60 73 75 76 81 81 75 70 68 69 70 73 77 90
318 316 314 317 318 318 320 321 317 314 310 305 307 318 320 314 305 263 300 343 318 282 274 291 300 315 331 329 331 355 358 347 339 331 320 311 280 243 246 263 280 306 328 344 349 6 46 29 328 246 256 307 30 27 10 32 52 55 356 327 352 49 147 179 140 156 206 201 179 156 123 111 86 76 81 80 77 79 77 71 67 69 70 73 81 85 89
316 314 314 316 318 319 319 318 314 312 308 305 310 320 311 292 297 273 281 325 324 298 301 304 304 311 319 318 330 357 4 337 313 299 302 307 282 240 241 247 244 254 271 280 275 277 257 231 243 280 327 27 78 7 0 49 69 11 293 316 351 15 343 240 190 167 131 143 150 135 105 99 94 87 87 83 76 79 79 73 71 71 70 77 91 96 93
316 315 317 319 319 319 316 313 312 310 304 305 314 317 260 248 274 273 287 314 332 323 321 317 302 306 313 318 336 1 8 357 325 296 291 294 274 247 238 237 238 241 246 243 235 241 231 208 209 261 326 55 88 96 100 95 111 263 286 327 13 39 48 89 189 151 123 130 131 116 104 100 93 88 87 82 76 81 82 77 74 71 68 75 86 90 97
315 316 321 322 319 315 310 307 306 302 297 299 306 305 268 220 263 287 303 304 299 317 322 305 283 299 311 321 338 351 359 3 353 321 294 282 276 257 230 228 232 232 233 238 233 215 208 194 136 132 155 126 92 104 133 114 104 291 306 329 26 51 63 87 118 123 123 124 121 113 105 100 96 93 85 77 75 81 82 80 77 71 68 73 75 75 88
315 318 323 323 315 308 304 300 296 292 288 286 285 281 288 296 285 286 287 276 282 304 315 311 300 302 310 323 333 344 355 1 2 351 321 288 275 244 195 205 217 224 230 224 193 181 232 150 108 110 145 156 131 103 86 90 114 265 285 267 106 71 70 84 104 114 120 125 125 117 97 84 90 92 82 76 76 75 77 81 79 73 73 75 75 74 75
315 319 322 319 312 306 301 294 291 286 281 281 285 293 307 307 270 266 262 258 274 290 291 295 311 272 288 312 327 350 359 354 359 3 345 294 258 352 186 196 208 223 236 208 160 130 12 116 112 103 120 140 125 99 77 33 314 258 211 158 138 114 96 88 95 103 107 115 132 134 115 101 99 94 87 84 78 69 69 74 73 74 77 77 78 81 77
315 318 319 315 309 304 298 293 288 280 275 279 286 298 315 239 209 264 273 263 271 277 253 251 270 261 298 310 321 353 355 346 347 357 350 303 271 339 301 241 279 102 62 20 36 92 61 72 106 106 94 31 35 64 84 301 310 124 125 123 126 130 132 135 141 126 100 95 120 130 123 116 111 103 96 90 79 70 70 67 56 53 66 75 79 79 76
315 316 316 312 305 300 296 292 284 271 266 270 266 253 244 227 218 253 294 283 274 261 236 239 240 258 316 320 308 343 350 345 336 337 337 317 328 338 306 321 359 39 35 13 38 95 21 35 104 108 349 349 30 101 225 247 179 137 135 131 128 127 124 123 133 143 132 122 126 127 125 126 122 108 98 91 82 74 68 58 50 47 57 74 81 79 80
315 315 314 309 303 298 294 287 275 259 251 251 248 245 254 259 258 269 274 264 252 245 248 272 243 216 242 275 276 313 336 342 340 342 345 330 329 343 30 49 5 296 350 14 48 42 24 70 107 40 354 30 75 237 210 170 153 152 149 141 135 129 119 121 133 144 144 140 140 138 135 135 123 105 96 91 80 69 58 52 49 44 50 67 75 71 79
316 316 315 310 301 293 284 271 256 246 245 254 261 270 276 277 280 283 270 249 242 243 243 248 255 235 223 238 285 306 325 333 335 346 1 0 335 336 25 50 145 279 355 24 39 29 42 80 75 45 63 241 315 298 175 154 151 154 149 139 136 130 124 126 138 146 143 135 133 134 130 120 109 98 92 87 75 60 47 43 36 27 31 49 58 58 69
317 318 318 312 293 268 253 242 232 237 268 282 285 291 290 280 280 283 257 229 229 235 227 224 251 249 222 220 273 287 297 322 339 349 358 356 343 337 11 33 63 13 21 343 310 20 46 50 47 68 208 296 340 68 147 152 144 136 133 132 135 135 131 132 143 151 146 137 133 136 134 123 113 102 88 80 71 58 48 39 24 8 8 19 29 45 56
320 322 319 303 267 232 224 235 240 259 293 296 282 275 268 244 234 255 227 207 213 220 213 221 245 233 205 208 274 285 280 292 344 352 347 349 350 347 354 345 2 65 65 265 265 51 64 9 4 61 307 313 349 101 147 153 135 132 133 131 129 131 133 134 140 152 153 148 145 141 130 118 112 101 87 77 70 62 52 36 19 7 7 11 19 63 3
322 321 311 290 263 245 240 245 254 273 296 290 260 251 244 234 228 203 179 184 229 215 204 221 251 242 224 224 255 286 279 259 275 299 308 300 290 346 55 13 347 69 66 265 260 98 94 38 10 71 240 272 269 161 156 147 140 139 137 134 134 135 136 134 134 138 142 139 132 118 101 91 89 87 82 72 62 55 44 32 28 30 29 22 40 81 304
325 323 313 301 296 279 255 242 247 265 272 228 216 251 245 235 238 216 181 193 269 230 215 221 246 251 235 225 226 249 274 272 270 277 284 275 279 2 62 317 341 61 72 254 260 76 87 82 26 302 237 219 188 165 155 149 146 145 144 142 142 140 134 129 129 133 135 128 118 108 100 95 90 86 80 66 52 45 39 35 37 41 38 23 2 340 338
320 318 315 317 321 314 266 225 220 229 228 170 201 288 271 242 258 247 212 222 261 265 248 248 260 279 275 252 238 249 271 279 273 267 260 270 273 132 94 339 25 75 195 245 299 57 63 71 308 268 228 183 166 161 155 151 150 149 149 150 147 142 139 132 125 120 116 113 109 106 103 101 96 86 78 68 57 49 41 37 39 41 39 31 9 351 350
314 312 318 325 332 350 5 203 196 192 172 74 109 296 306 297 285 263 233 255 293 346 359 336 322 316 305 282 264 263 265 262 265 266 225 238 260 81 67 29 32 139 209 249 62 62 77 172 218 246 208 170 168 165 157 153 155 153 150 152 150 141 137 132 125 121 115 107 104 103 102 99 93 87 81 73 62 50 41 38 38 35 29 26 18 1 346
317 307 314 321 324 13 62 183 182 173 156 11 163 191 281 287 274 279 310 311 317 339 347 337 330 322 297 285 294 288 262 248 264 278 262 254 12 61 71 279 248 223 110 46 53 45 236 214 230 251 192 168 174 174 163 158 159 157 154 156 154 145 140 135 130 128 125 118 113 110 101 95 98 100 90 71 54 48 48 47 42 34 31 34 34 22 8
327 315 326 330 318 160 148 242 192 178 225 236 192 180 190 210 226 244 290 305 306 322 336 339 336 318 287 299 310 292 267 290 314 275 240 83 50 60 187 222 249 59 61 50 43 39 271 255 256 261 215 183 182 179 170 166 168 167 163 161 159 155 151 145 138 136 136 134 131 119 98 91 107 114 101 79 62 62 64 57 49 45 47 50 50 44 37
333 338 0 4 296 231 203 179 177 247 233 227 267 269 248 247 259 272 297 320 324 329 336 341 341 328 303 311 321 283 288 323 326 255 118 83 93 239 220 149 54 54 60 41 341 219 235 249 249 251 235 200 185 178 173 171 172 176 175 171 165 161 158 153 151 152 150 147 143 129 105 96 106 117 113 99 80 66 64 62 56 55 58 58 56 54 51
339 3 38 53 306 279 185 158 311 306 290 309 326 323 306 286 281 286 301 322 328 330 331 335 338 330 310 322 325 294 294 347 28 266 288 108 157 285 19 59 77 143 125 156 228 237 246 242 221 223 243 207 181 176 172 169 173 181 182 174 167 165 166 171 173 170 165 161 155 143 129 119 115 117 123 118 98 78 72 69 62 59 60 60 57 55 52
328 356 28 331 304 219 199 320 330 326 318 327 338 346 347 328 301 293 304 322 328 328 328 335 344 341 318 328 325 287 293 11 345 270 267 101 89 346 24 30 305 264 167 178 208 228 235 210 193 199 225 193 176 173 170 168 176 183 181 175 174 178 185 187 182 174 172 169 159 146 138 128 112 101 113 128 116 100 88 78 69 62 60 59 57 55 53
314 307 263 284 290 274 298 322 327 323 329 342 350 359 6 0 336 316 322 337 337 330 324 331 343 324 293 318 335 303 292 341 237 263 17 50 79 196 114 89 284 265 219 215 222 209 185 176 174 178 184 177 173 172 171 174 185 189 184 181 185 190 191 188 182 177 177 174 160 145 137 130 120 125 163 149 124 108 95 86 76 68 64 63 60 57 54
293 274 256 252 279 308 330 344 341 321 333 344 348 352 359 359 350 343 348 350 343 331 327 347 5 325 289 334 8 322 288 277 193 21 1 324 194 151 102 179 227 226 219 213 191 167 163 165 169 172 174 173 171 171 174 183 190 189 184 182 183 184 183 180 177 179 181 177 165 151 140 129 123 140 155 139 125 118 109 99 82 71 68 66 64 63 59
277 269 258 244 267 311 329 330 311 282 298 320 329 336 345 349 346 346 358 1 356 352 0 9 356 334 334 19 49 295 301 311 357 40 6 244 168 98 132 209 235 235 193 166 158 159 165 170 172 171 172 173 174 176 182 189 188 183 179 181 185 188 189 189 186 183 181 177 173 166 155 139 127 135 138 140 150 149 131 112 98 91 78 67 67 71 65
253 278 293 288 288 296 303 300 290 281 285 300 313 324 335 342 349 0 14 15 20 34 31 356 354 27 45 347 295 292 307 328 10 25 3 329 355 191 217 242 270 272 203 162 155 162 172 174 173 173 174 174 174 175 178 182 182 180 183 190 193 192 193 195 188 178 174 177 181 179 169 162 175 182 170 169 179 172 146 123 115 122 102 73 69 73 64
Height
1501 1499 1496 1493 1490 1488 1486 1483 1480 1476 1471 1467 1464 1463 1462 1461 1460 1457 1456 1456 1455 1456 1455 1452 1452 1449 1444 1441 1439 1437 1436 1433 1431 1429 1429 1429 1428 1428 1427 1425 1424 1423 1422 1422 1422 1421 1418 1416 1415 1413 1413 1412 1411 1409 1409 1410 1413 1415 1417 1417 1418 1420 1423 1424 1418 1412 1411 1409 1408 1410 1412 1415 1421 1422 1424 1428 1430 1430 1432 1437 1438 1439 1445 1446 1448 1450 1435
1500 1498 1495 1493 1490 1488 1485 1483 1480 1477 1473 1469 1466 1464 1462 1461 1459 1457 1456 1456 1455 1456 1454 1451 1450 1446 1442 1440 1438 1435 1434 1432 1431 1429 1427 1427 1427 1426 1426 1424 1422 1421 1421 1421 1421 1420 1419 1416 1413 1411 1411 1408 1406 1407 1408 1410 1412 1413 1414 1413 1415 1419 1421 1422 1421 1419 1419 1419 1419 1419 1416 1415 1417 1419 1422 1423 1425 1427 1429 1433 1435 1438 1443 1441 1443 1447 1434
1499 1497 1495 1493 1490 1488 1485 1483 1480 1477 1475 1472 1468 1465 1463 1461 1458 1456 1456 1455 1455 1454 1453 1451 1449 1446 1443 1441 1436 1433 1431 1429 1429 1427 1426 1425 1425 1424 1423 1421 1420 1419 1420 1421 1421 1420 1420 1418 1413 1410 1408 1406 1402 1402 1406 1408 1408 1409 1410 1410 1410 1415 1419 1419 1420 1423 1426 1426 1424 1420 1414 1413 1413 1415 1419 1420 1422 1424 1428 1432 1434 1438 1444 1442 1436 1435 1429
1499 1497 1495 1493 1490 1488 1485 1483 1480 1477 1475 1472 1469 1467 1465 1463 1461 1458 1455 1454 1454 1453 1451 1451 1450 1447 1445 1441 1434 1432 1431 1428 1427 1426 1424 1423 1422 1422 1421 1419 1419 1420 1420 1421 1420 1419 1418 1417 1414 1410 1408 1406 1400 1398 1401 1404 1405 1407 1408 1409 1410 1414 1416 1415 1414 1416 1417 1415 1412 1408 1406 1411 1414 1414 1417 1419 1420 1422 1425 1430 1432 1433 1440 1440 1432 1429 1426
1498 1496 1495 1492 1490 1487 1485 1482 1480 1477 1475 1472 1470 1468 1466 1465 1465 1463 1459 1455 1453 1451 1450 1450 1449 1447 1446 1442 1435 1433 1432 1429 1427 1425 1423 1421 1421 1421 1420 1418 1418 1419 1420 1420 1420 1419 1416 1414 1414 1412 1409 1406 1400 1396 1397 1400 1403 1405 1406 1409 1413 1416 1416 1413 1410 1409 1407 1403 1403 1403 1403 1409 1412 1413 1417 1419 1419 1422 1425 1428 1428 1428 1435 1436 1430 1430 1428
1498 1496 1494 1492 1490 1487 1485 1482 1480 1478 1475 1472 1470 1468 1467 1467 1466 1465 1464 1460 1455 1452 1449 1448 1447 1445 1444 1442 1437 1434 1431 1430 1428 1425 1422 1421 1420 1419 1419 1418 1418 1418 1418 1420 1419 1417 1414 1414 1415 1413 1410 1407 1401 1397 1397 1399 1401 1405 1408 1410 1413 1417 1416 1410 1408 1409 1405 1400 1401 1401 1401 1405 1408 1410 1415 1418 1419 1421 1421 1423 1425 1424 1426 1427 1426 1430 1427
1498 1495 1494 1492 1490 1487 1485 1483 1480 1478 1476 1474 1471 1470 1469 1469 1467 1465 1464 1462 1458 1454 1450 1448 1446 1444 1442 1440 1438 1434 1431 1428 1427 1426 1425 1422 1420 1419 1419 1417 1417 1416 1417 1419 1418 1413 1412 1416 1417 1414 1411 1408 1403 1399 1400 1401 1401 1405 1409 1409 1412 1415 1413 1407 1407 1407 1405 1402 1401 1399 1400 1405 1407 1408 1412 1415 1417 1417 1417 1421 1425 1424 1423 1425 1427 1428 1425
1497 1495 1493 1492 1490 1488 1485 1483 1481 1478 1477 1474 1473 1472 1472 1472 1471 1467 1464 1461 1456 1452 1450 1447 1445 1442 1441 1439 1436 1434 1431 1426 1423 1423 1424 1422 1420 1420 1419 1415 1414 1414 1414 1415 1415 1411 1410 1414 1414 1412 1410 1408 1403 1400 1400 1401 1402 1405 1409 1408 1410 1412 1410 1408 1406 1405 1404 1403 1401 1400 1400 1403 1408 1412 1414 1415 1417 1420 1421 1423 1426 1426 1426 1429 1429 1426 1422
1497 1495 1493 1491 1490 1488 1485 1483 1481 1479 1477 1475 1474 1474 1475 1475 1474 1471 1467 1461 1454 1451 1449 1447 1444 1441 1440 1439 1436 1433 1430 1426 1422 1419 1419 1419 1419 1418 1417 1414 1412 1412 1411 1410 1410 1408 1408 1409 1407 1405 1406 1406 1404 1401 1400 1402 1404 1406 1408 1408 1407 1408 1408 1407 1404 1404 1407 1407 1404 1404 1402 1403 1410 1415 1415 1414 1416 1419 1422 1421 1421 1421 1423 1429 1433 1427 1420
1497 1495 1493 1491 1490 1488 1486 1484 1482 1480 1478 1476 1475 1475 1475 1473 1471 1471 1469 1463 1455 1452 1449 1446 1444 1442 1440 1439 1437 1433 1430 1425 1421 1419 1417 1416 1416 1415 1414 1413 1413 1412 1409 1407 1406 1404 1403 1402 1400 1400 1402 1402 1403 1402 1402 1404 1406 1406 1407 1408 1407 1407 1406 1406 1404 1405 1410 1412 1407 1403 1404 1411 1417 1416 1412 1412 1413 1416 1419 1418 1417 1417 1419 1424 1427 1422 1416
1496 1495 1493 1491 1490 1488 1486 1484 1482 1480 1479 1478 1477 1476 1475 1473 1471 1469 1469 1464 1456 1453 1452 1447 1445 1443 1440 1439 1436 1432 1428 1424 1421 1421 1419 1415 1414 1413 1412 1413 1413 1410 1407 1404 1403 1401 1399 1396 1395 1396 1398 1400 1401 1402 1402 1404 1405 1403 1403 1404 1406 1407 1406 1407 1406 1405 1412 1416 1408 1404 1413 1422 1421 1415 1412 1411 1410 1411 1414 1416 1415 1417 1418 1419 1418 1417 1417
1496 1494 1492 1491 1489 1488 1486 1485 1483 1481 1480 1479 1478 1477 1475 1474 1472 1469 1469 1466 1457 1454 1453 1448 1446 1444 1441 1438 1436 1432 1428 1425 1422 1421 1419 1416 1413 1412 1411 1411 1411 1407 1403 1401 1400 1398 1395 1393 1392 1394 1397 1399 1400 1401 1402 1404 1403 1401 1400 1402 1406 1406 1404 1408 1409 1407 1412 1415 1409 1414 1425 1424 1416 1415 1416 1413 1410 1410 1412 1415 1416 1416 1418 1418 1416 1416 1417
1496 1494 1492 1490 1489 1487 1486 1485 1483 1482 1480 1479 1477 1476 1475 1474 1473 1470 1470 1468 1461 1456 1454 1448 1444 1444 1441 1437 1434 1431 1427 1425 1421 1418 1418 1416 1413 1412 1410 1409 1407 1404 1400 1399 1398 1396 1395 1394 1393 1394 1396 1397 1399 1402 1404 1404 1404 1404 1403 1404 1405 1403 1402 1406 1412 1414 1413 1413 1414 1422 1426 1419 1412 1415 1416 1413 1413 1413 1413 1416 1418 1417 1418 1418 1416 1416 1417
1496 1493 1491 1489 1488 1487 1486 1484 1483 1481 1480 1479 1477 1476 1475 1473 1473 1471 1470 1469 1462 1456 1455 1450 1444 1442 1440 1437 1434 1430 1426 1423 1420 1417 1416 1415 1414 1412 1409 1407 1405 1402 1400 1399 1397 1396 1396 1396 1395 1396 1397 1399 1403 1407 1407 1406 1407 1406 1405 1406 1405 1402 1401 1403 1411 1417 1416 1415 1419 1422 1421 1419 1416 1415 1414 1412 1412 1412 1411 1414 1417 1417 1417 1418 1418 1420 1421
1496 1493 1491 1489 1487 1486 1485 1484 1483 1481 1479 1478 1477 1476 1475 1473 1473 1472 1470 1470 1464 1456 1452 1451 1447 1444 1442 1438 1435 1432 1427 1425 1423 1419 1416 1414 1413 1411 1408 1406 1404 1401 1399 1398 1398 1398 1399 1397 1396 1398 1402 1405 1408 1410 1409 1410 1411 1408 1406 1408 1404 1400 1399 1399 1406 1417 1418 1416 1421 1424 1426 1426 1420 1414 1413 1412 1411 1411 1411 1412 1416 1418 1417 1416 1418 1421 1421
1495 1493 1491 1489 1486 1485 1484 1483 1482 1481 1479 1478 1477 1475 1474 1473 1473 1472 1470 1470 1468 1459 1451 1449 1449 1448 1444 1439 1436 1434 1432 1429 1426 1422 1417 1414 1412 1411 1408 1405 1404 1402 1399 1398 1399 1400 1400 1398 1398 1401 1404 1405 1407 1409 1410 1412 1412 1408 1405 1404 1400 1399 1401 1400 1403 1414 1416 1413 1418 1426 1428 1425 1420 1415 1414 1413 1412 1411 1411 1415 1419 1418 1415 1416 1417 1419 1421
1495 1493 1490 1488 1486 1485 1483 1482 1481 1480 1478 1478 1476 1475 1474 1472 1472 1471 1469 1469 1467 1458 1449 1448 1449 1448 1445 1440 1436 1436 1434 1432 1430 1427 1424 1420 1416 1413 1409 1405 1404 1402 1399 1399 1401 1400 1400 1402 1402 1403 1405 1406 1405 1406 1410 1411 1409 1406 1403 1400 1399 1399 1401 1402 1405 1414 1417 1415 1420 1426 1425 1421 1419 1416 1413 1412 1411 1409 1414 1424 1425 1416 1413 1415 1415 1417 1420
1494 1492 1490 1488 1485 1484 1482 1481 1480 1479 1478 1477 1476 1475 1474 1472 1471 1470 1468 1468 1467 1456 1447 1448 1449 1446 1445 1443 1439 1437 1436 1433 1432 1431 1428 1423 1419 1416 1413 1409 1406 1403 1401 1402 1404 1403 1403 1407 1409 1408 1409 1409 1404 1405 1409 1409 1407 1407 1405 1404 1405 1404 1406 1410 1412 1415 1417 1416 1420 1426 1424 1420 1418 1415 1412 1411 1411 1413 1421 1426 1421 1413 1412 1415 1414 1416 1419
1493 1491 1489 1487 1485 1483 1481 1480 1479 1478 1477 1476 1475 1474 1474 1472 1471 1469 1467 1467 1467 1456 1445 1445 1447 1444 1442 1442 1439 1437 1436 1434 1433 1432 1429 1424 1420 1416 1414 1412 1410 1408 1405 1404 1407 1409 1409 1411 1415 1414 1412 1411 1408 1408 1410 1409 1407 1408 1405 1405 1409 1409 1410 1415 1416 1417 1420 1421 1422 1427 1426 1421 1417 1415 1412 1411 1414 1420 1424 1421 1415 1412 1413 1413 1414 1416 1417
1493 1490 1489 1487 1484 1482 1481 1479 1478 1477 1476 1475 1474 1473 1473 1471 1470 1469 1466 1465 1465 1455 1443 1442 1444 1441 1440 1440 1438 1437 1436 1434 1432 1432 1431 1427 1421 1416 1415 1415 1414 1412 1410 1409 1411 1414 1414 1414 1416 1416 1414 1414 1412 1411 1411 1410 1410 1409 1406 1406 1411 1413 1414 1417 1420 1422 1424 1424 1424 1427 1427 1422 1418 1416 1413 1413 1417 1421 1422 1419 1416 1415 1413 1412 1414 1414 1415
1492 1490 1488 1486 1483 1482 1480 1478 1477 1476 1475 1475 1473 1471 1471 1471 1469 1468 1466 1464 1464 1455 1444 1440 1441 1439 1437 1437 1436 1436 1436 1433 1431 1431 1430 1427 1423 1421 1421 1422 1419 1417 1416 1415 1415 1416 1416 1416 1417 1415 1415 1415 1413 1412 1414 1413 1410 1409 1408 1409 1413 1416 1416 1418 1422 1424 1422 1421 1424 1427 1425 1422 1420 1417 1416 1417 1418 1418 1418 1418 1418 1415 1413 1413 1414 1414 1415
1491 1489 1487 1485 1483 1481 1479 1477 1476 1475 1474 1473 1472 1470 1469 1469 1468 1467 1464 1462 1461 1455 1445 1440 1439 1436 1435 1434 1434 1434 1433 1431 1430 1431 1430 1427 1425 1423 1423 1423 1421 1419 1419 1418 1418 1418 1417 1417 1417 1416 1417 1417 1414 1415 1418 1416 1412 1413 1413 1411 1414 1418 1416 1415 1420 1426 1424 1422 1425 1426 1423 1422 1421 1419 1419 1419 1418 1417 1417 1416 1416 1416 1415 1414 1414 1415 1416
1490 1488 1486 1484 1482 1479 1478 1476 1474 1473 1472 1472 1471 1469 1467 1467 1466 1465 1463 1459 1456 1450 1442 1438 1437 1435 1432 1432 1432 1431 1431 1429 1428 1429 1429 1429 1427 1424 1423 1422 1421 1420 1420 1419 1420 1419 1418 1418 1418 1418 1419 1420 1417 1417 1418 1416 1417 1420 1419 1415 1417 1419 1418 1416 1419 1425 1426 1424 1425 1425 1423 1423 1421 1420 1420 1419 1418 1418 1417 1416 1416 1416 1416 1416 1416 1417 1418
1489 1486 1484 1483 1480 1478 1476 1475 1473 1472 1471 1470 1470 1468 1466 1466 1465 1463 1461 1458 1455 1449 1442 1437 1436 1434 1431 1430 1430 1430 1429 1428 1428 1427 1427 1428 1427 1425 1423 1422 1421 1421 1420 1420 1420 1419 1418 1418 1418 1418 1419 1419 1419 1419 1419 1418 1421 1422 1421 1420 1421 1419 1418 1419 1421 1424 1426 1426 1426 1425 1424 1423 1422 1421 1421 1420 1419 1419 1419 1418 1418 1418 1417 1417 1418 1418 1420
1487 1485 1483 1481 1479 1477 1475 1473 1472 1471 1470 1469 1468 1467 1465 1465 1464 1463 1461 1459 1457 1454 1449 1441 1435 1432 1431 1429 1428 1429 1429 1427 1427 1426 1425 1425 1426 1425 1424 1423 1422 1422 1421 1420 1420 1419 1418 1418 1418 1418 1419 1418 1418 1420 1421 1420 1421 1422 1421 1422 1423 1420 1419 1421 1423 1425 1427 1426 1426 1425 1424 1423 1423 1422 1422 1422 1421 1421 1420 1420 1420 1420 1420 1420 1420 1420 1422
1485 1484 1482 1480 1478 1475 1474 1472 1471 1470 1469 1467 1467 1466 1464 1463 1463 1462 1461 1460 1457 1456 1455 1447 1435 1430 1431 1429 1427 1427 1428 1427 1426 1424 1423 1423 1424 1424 1424 1423 1422 1422 1421 1420 1420 1419 1419 1419 1419 1419 1420 1419 1418 1420 1421 1419 1420 1421 1421 1422 1421 1420 1420 1421 1424 1427 1428 1427 1426 1425 1425 1424 1424 1424 1423 1424 1423 1422 1422 1422 1422 1421 1422 1422 1423 1423 1424
1483 1482 1480 1478 1476 1474 1472 1471 1470 1468 1467 1466 1466 1465 1463 1462 1462 1461 1461 1461 1458 1456 1455 1449 1438 1430 1428 1427 1426 1426 1426 1424 1424 1423 1422 1423 1423 1423 1423 1423 1423 1422 1421 1420 1420 1419 1419 1420 1420 1420 1420 1419 1418 1419 1420 1419 1420 1421 1422 1422 1420 1420 1421 1422 1424 1426 1427 1426 1424 1424 1424 1426 1426 1426 1425 1426 1426 1424 1423 1423 1423 1423 1424 1425 1426 1426 1426
1481 1480 1478 1476 1475 1473 1471 1470 1468 1467 1466 1465 1465 1464 1463 1461 1461 1461 1460 1460 1459 1458 1455 1450 1441 1432 1428 1426 1425 1425 1424 1423 1423 1422 1422 1422 1422 1423 1423 1424 1423 1422 1421 1420 1420 1420 1420 1420 1420 1420 1420 1419 1419 1420 1421 1420 1422 1423 1424 1423 1421 1421 1423 1422 1422 1423 1423 1422 1422 1424 1424 1425 1427 1427 1427 1427 1427 1426 1425 1425 1426 1426 1426 1427 1427 1428 1428
1479 1478 1476 1474 1473 1471 1470 1469 1467 1466 1465 1464 1463 1463 1463 1461 1461 1461 1461 1460 1459 1458 1455 1450 1442 1435 1430 1427 1424 1424 1424 1423 1422 1422 1422 1421 1421 1422 1423 1423 1422 1422 1421 1421 1422 1422 1422 1421 1420 1420 1419 1419 1420 1423 1423 1424 1426 1426 1425 1423 1422 1422 1422 1422 1421 1421 1421 1421 1423 1425 1425 1426 1428 1428 1428 1428 1428 1427 1427 1428 1428 1428 1428 1429 1429 1429 1430
1477 1475 1474 1472 1471 1470 1468 1467 1466 1465 1464 1463 1462 1462 1462 1461 1461 1461 1461 1460 1459 1458 1456 1453 1446 1438 1432 1428 1425 1423 1423 1422 1421 1421 1421 1420 1420 1420 1421 1421 1421 1421 1421 1422 1422 1422 1421 1420 1420 1420 1420 1420 1422 1425 1427 1428 1429 1427 1424 1423 1423 1422 1421 1421 1421 1421 1421 1422 1425 1426 1426 1427 1429 1429 1428 1429 1429 1429 1429 1430 1430 1430 1431 1431 1431 1431 1431
1475 1473 1472 1470 1469 1468 1467 1466 1465 1464 1463 1462 1462 1462 1462 1461 1461 1461 1461 1460 1460 1458 1457 1455 1449 1440 1433 1429 1426 1424 1422 1421 1420 1419 1419 1420 1419 1419 1419 1420 1420 1421 1421 1421 1421 1420 1420 1420 1420 1421 1421 1421 1423 1425 1427 1428 1428 1426 1424 1423 1424 1424 1422 1422 1422 1422 1423 1424 1425 1427 1428 1429 1429 1430 1430 1430 1431 1431 1431 1431 1432 1432 1433 1433 1433 1433 1433
1473 1471 1470 1469 1467 1466 1465 1465 1464 1463 1462 1461 1461 1462 1462 1461 1461 1461 1461 1460 1459 1459 1458 1456 1451 1445 1438 1431 1426 1425 1423 1421 1420 1419 1418 1419 1419 1419 1419 1419 1419 1420 1420 1420 1420 1420 1419 1419 1420 1421 1422 1423 1424 1426 1427 1427 1427 1426 1425 1424 1425 1425 1424 1425 1425 1425 1425 1426 1426 1427 1429 1430 1430 1431 1431 1432 1433 1433 1432 1433 1434 1434 1434 1434 1434 1434 1434
1471 1469 1468 1467 1465 1464 1463 1463 1462 1461 1460 1460 1460 1461 1461 1461 1461 1460 1460 1459 1458 1458 1458 1457 1454 1450 1443 1434 1428 1425 1423 1421 1420 1419 1418 1418 1419 1419 1419 1419 1419 1419 1419 1419 1419 1419 1419 1420 1420 1421 1423 1423 1424 1426 1427 1427 1426 1425 1424 1424 1425 1426 1426 1428 1428 1427 1427 1428 1428 1428 1429 1431 1432 1433 1433 1434 1434 1434 1434 1435 1435 1436 1436 1436 1436 1436 1436
1468 1467 1465 1464 1463 1462 1461 1460 1460 1459 1459 1459 1459 1459 1459 1459 1459 1459 1459 1459 1458 1458 1457 1457 1455 1451 1444 1436 1431 1427 1424 1422 1421 1420 1419 1419 1419 1419 1419 1419 1418 1418 1418 1418 1419 1419 1420 1420 1420 1422 1424 1424 1425 1426 1428 1427 1426 1425 1425 1426 1426 1427 1428 1430 1430 1429 1429 1429 1430 1430 1430 1432 1433 1434 1435 1435 1435 1436 1436 1436 1436 1437 1437 1437 1437 1437 1437
1466 1465 1463 1462 1461 1460 1459 1458 1458 1457 1457 1457 1458 1458 1458 1458 1458 1458 1458 1458 1458 1457 1456 1455 1455 1453 1447 1441 1434 1428 1424 1423 1422 1421 1420 1419 1419 1419 1419 1419 1418 1418 1418 1419 1419 1420 1421 1421 1421 1423 1425 1426 1426 1428 1429 1428 1427 1427 1427 1427 1428 1429 1429 1430 1430 1430 1430 1431 1431 1432 1432 1433 1434 1435 1436 1436 1437 1437 1437 1437 1437 1438 1438 1438 1438 1439 1439
1464 1463 1461 1460 1459 1458 1457 1457 1456 1456 1456 1456 1457 1457 1457 1457 1456 1457 1457 1456 1456 1457 1455 1455 1454 1453 1450 1446 1438 1430 1426 1425 1423 1422 1421 1420 1419 1419 1419 1419 1419 1419 1419 1419 1420 1421 1422 1421 1422 1425 1427 1427 1427 1428 1428 1427 1428 1429 1428 1429 1429 1430 1429 1430 1430 1431 1432 1432 1433 1433 1434 1435 1436 1437 1437 1438 1438 1438 1438 1438 1439 1439 1439 1439 1440 1440 1440
1462 1461 1459 1458 1457 1456 1456 1455 1455 1455 1455 1456 1456 1456 1456 1455 1455 1455 1454 1454 1455 1454 1454 1454 1452 1449 1448 1447 1441 1433 1428 1426 1424 1423 1421 1420 1420 1420 1420 1420 1421 1421 1420 1421 1422 1422 1422 1422 1424 1427 1429 1428 1427 1427 1427 1428 1429 1430 1429 1430 1430 1430 1430 1431 1432 1433 1434 1435 1435 1435 1436 1437 1437 1438 1439 1439 1439 1439 1439 1439 1439 1439 1440 1440 1440 1440 1441
1460 1459 1457 1456 1456 1455 1455 1455 1455 1455 1455 1455 1455 1455 1454 1454 1454 1453 1453 1453 1453 1452 1453 1453 1449 1445 1446 1445 1439 1433 1430 1429 1427 1425 1423 1422 1421 1421 1421 1421 1422 1422 1423 1424 1424 1423 1424 1426 1428 1429 1429 1428 1427 1427 1428 1429 1430 1430 1431 1431 1431 1431 1432 1432 1433 1434 1435 1436 1437 1437 1438 1438 1438 1439 1440 1440 1440 1440 1440 1440 1440 1440 1440 1440 1441 1441 1441
1458 1457 1456 1455 1455 1454 1454 1454 1454 1454 1454 1454 1454 1454 1454 1453 1454 1453 1452 1452 1451 1451 1451 1449 1445 1441 1443 1442 1436 1431 1429 1430 1429 1427 1425 1423 1422 1422 1422 1423 1422 1423 1426 1426 1424 1423 1425 1429 1431 1431 1430 1429 1428 1428 1428 1430 1430 1431 1431 1432 1432 1432 1433 1434 1434 1435 1435 1436 1437 1438 1438 1439 1439 1439 1440 1440 1440 1441 1441 1441 1441 1441 1441 1441 1441 1441 1441
1458 1456 1455 1454 1454 1453 1453 1453 1453 1454 1454 1454 1453 1453 1453 1453 1452 1451 1450 1450 1450 1448 1447 1445 1440 1438 1438 1438 1436 1432 1430 1429 1428 1427 1425 1424 1423 1423 1424 1423 1423 1424 1428 1428 1424 1423 1426 1430 1433 1432 1431 1430 1429 1429 1429 1430 1431 1431 1432 1433 1433 1434 1434 1434 1435 1436 1436 1437 1438 1439 1439 1439 1440 1440 1441 1441 1441 1441 1441 1441 1441 1441 1441 1441 1441 1441 1441
1456 1455 1454 1454 1453 1452 1452 1452 1453 1453 1453 1453 1453 1453 1453 1452 1450 1448 1448 1448 1446 1443 1440 1439 1438 1436 1435 1435 1435 1433 1429 1427 1427 1426 1425 1424 1423 1423 1424 1424 1424 1426 1428 1427 1424 1424 1427 1431 1433 1432 1430 1428 1429 1429 1430 1431 1431 1432 1433 1433 1434 1435 1435 1435 1436 1437 1437 1438 1439 1439 1440 1440 1441 1441 1441 1441 1441 1441 1441 1441 1441 1441 1441 1441 1441 1441 1441
1456 1455 1454 1453 1452 1451 1451 1451 1452 1452 1453 1453 1453 1453 1452 1450 1448 1446 1445 1444 1442 1439 1438 1437 1436 1434 1433 1432 1432 1430 1428 1427 1427 1425 1424 1424 1423 1423 1424 1425 1425 1425 1426 1425 1424 1425 1428 1431 1433 1431 1428 1428 1429 1429 1430 1431 1432 1432 1433 1434 1435 1435 1436 1436 1437 1438 1439 1439 1439 1440 1441 1441 1441 1442 1442 1442 1442 1442 1442 1441 1441 1441 1441 1440 1440 1440 1440
1456 1455 1454 1453 1452 1451 1450 1450 1451 1451 1452 1453 1454 1453 1451 1448 1446 1444 1443 1441 1439 1438 1438 1437 1435 1433 1432 1430 1429 1428 1427 1426 1426 1425 1424 1424 1423 1423 1425 1426 1426 1425 1424 1425 1426 1427 1429 1431 1431 1428 1426 1427 1429 1430 1431 1432 1433 1433 1434 1435 1435 1436 1436 1437 1438 1439 1440 1440 1441 1441 1442 1442 1442 1443 1443 1443 1443 1443 1442 1442 1442 1441 1441 1440 1440 1440 1440
1455 1454 1454 1453 1452 1451 1451 1450 1450 1451 1453 1453 1452 1452 1450 1448 1445 1444 1443 1441 1439 1438 1438 1437 1436 1435 1432 1430 1428 1427 1426 1425 1425 1425 1424 1423 1424 1425 1425 1425 1425 1424 1425 1426 1429 1431 1431 1431 1429 1427 1426 1427 1429 1430 1431 1432 1433 1434 1435 1436 1436 1437 1437 1438 1438 1439 1440 1441 1442 1442 1442 1443 1443 1443 1444 1444 1444 1444 1443 1443 1443 1442 1442 1441 1441 1440 1441
1455 1454 1454 1453 1452 1452 1452 1451 1450 1451 1451 1450 1449 1449 1449 1447 1445 1444 1442 1440 1439 1438 1437 1436 1435 1434 1432 1430 1428 1427 1426 1425 1425 1424 1424 1424 1425 1425 1425 1424 1424 1426 1427 1430 1432 1433 1432 1429 1427 1425 1426 1427 1428 1430 1431 1433 1433 1434 1435 1436 1437 1438 1438 1438 1439 1440 1441 1441 1442 1442 1443 1444 1444 1444 1444 1445 1445 1445 1444 1444 1444 1443 1443 1442 1442 1441 1441
1455 1454 1454 1454 1453 1452 1451 1451 1451 1450 1449 1449 1448 1448 1447 1445 1444 1442 1441 1440 1439 1438 1436 1435 1434 1433 1431 1429 1428 1427 1426 1425 1425 1424 1424 1424 1424 1424 1424 1424 1424 1426 1430 1432 1433 1431 1429 1427 1426 1425 1426 1427 1428 1430 1431 1433 1434 1435 1435 1436 1438 1438 1439 1439 1440 1440 1441 1442 1442 1443 1444 1444 1444 1445 1445 1445 1445 1446 1445 1445 1445 1445 1444 1444 1443 1443 1442
1455 1455 1455 1455 1454 1452 1451 1451 1451 1450 1449 1448 1448 1447 1445 1443 1442 1441 1440 1439 1438 1437 1436 1434 1433 1432 1431 1430 1429 1427 1426 1426 1425 1424 1424 1424 1423 1424 1424 1424 1425 1427 1429 1431 1430 1429 1427 1426 1425 1425 1426 1426 1428 1430 1431 1433 1434 1435 1436 1437 1438 1439 1439 1440 1440 1441 1441 1442 1443 1444 1444 1445 1445 1445 1446 1446 1446 1447 1447 1446 1446 1446 1446 1445 1445 1444 1444
1455 1455 1455 1455 1454 1452 1451 1451 1450 1449 1448 1448 1446 1445 1443 1441 1441 1440 1440 1439 1438 1437 1435 1434 1434 1433 1432 1431 1430 1428 1427 1426 1425 1424 1423 1423 1424 1425 1425 1426 1427 1427 1428 1427 1426 1425 1425 1424 1424 1425 1426 1426 1428 1430 1431 1433 1434 1435 1436 1437 1438 1439 1439 1440 1440 1441 1442 1443 1443 1444 1445 1445 1446 1446 1447 1447 1447 1447 1447 1447 1447 1447 1447 1447 1446 1445 1445
1455 1455 1455 1455 1454 1452 1451 1451 1450 1448 1447 1446 1445 1443 1442 1441 1440 1440 1439 1438 1437 1437 1435 1435 1434 1434 1433 1431 1431 1429 1428 1427 1426 1425 1423 1423 1424 1426 1427 1428 1427 1426 1425 1424 1424 1423 1423 1423 1424 1425 1426 1427 1428 1430 1432 1434 1435 1436 1437 1438 1438 1439 1440 1440 1441 1442 1442 1443 1444 1445 1445 1446 1447 1447 1447 1448 1448 1448 1448 1448 1448 1448 1448 1448 1447 1447 1446
1455 1455 1455 1454 1454 1453 1452 1451 1450 1449 1446 1445 1444 1443 1442 1441 1440 1440 1439 1438 1437 1436 1434 1434 1435 1435 1433 1432 1432 1431 1428 1427 1426 1425 1424 1424 1426 1427 1427 1427 1425 1422 1421 1422 1422 1422 1422 1423 1425 1426 1426 1428 1429 1431 1433 1434 1435 1436 1437 1438 1439 1439 1440 1441 1441 1442 1443 1443 1444 1445 1446 1446 1447 1447 1448 1448 1449 1449 1449 1449 1449 1449 1449 1449 1448 1448 1448
1455 1455 1454 1454 1454 1453 1453 1452 1452 1451 1449 1446 1445 1444 1443 1442 1440 1440 1439 1438 1437 1436 1435 1436 1437 1436 1435 1434 1434 1432 1429 1427 1427 1426 1425 1427 1429 1428 1426 1423 1422 1421 1420 1420 1421 1422 1423 1424 1425 1426 1427 1428 1430 1431 1433 1434 1435 1437 1438 1439 1439 1440 1440 1441 1442 1442 1443 1444 1445 1445 1446 1447 1447 1448 1448 1448 1449 1449 1449 1449 1449 1449 1449 1449 1449 1449 1449
1455 1454 1454 1453 1453 1453 1453 1453 1452 1451 1449 1447 1446 1445 1444 1443 1441 1440 1439 1439 1438 1437 1438 1438 1439 1438 1436 1436 1435 1434 1430 1428 1428 1429 1430 1430 1431 1431 1428 1426 1424 1422 1421 1420 1421 1423 1424 1425 1426 1426 1427 1429 1431 1432 1434 1435 1436 1437 1438 1439 1439 1440 1441 1441 1441 1442 1443 1444 1445 1445 1446 1447 1447 1448 1448 1448 1449 1449 1449 1449 1450 1450 1450 1450 1450 1450 1449